Sheridan, WY (82801)

11:42 PM MST on February 23, 2017 (GMT -0700)
South Sheridan | | Change Station
Active Advisory: Winter Weather Advisory

Elev 3770 ft 44.79 °N, 106.95 °W | Updated 1 minute ago

Light Snow
Light Snow
25.2 °F
Feels Like 25 °F
N
0.0
Wind Variable Wind from SSE
Gusts 0.0 mph

Today
High -- | Low -- °F
--% Chance of Precip.
Yesterday
High -- | Low -- °F
Precip. -- in
Pressure 29.95 in
Visibility 8.0 miles
Clouds Few 3000 ft
Overcast 3600 ft
Windchill 25 °F
Dew Point 22 °F
Humidity 88%
Rainfall 0.00 in
Snow Depth Not available.
6:55 AM 5:47 PM
Waning Crescent, 6% visible
SPECI KSHR 240614Z AUTO 13008KT 8SM -SN FEW030 OVC036 M04/M06 A2995 RMK AO2 P0000 T10441061
Pressure 29.95 in
Visibility 8.0 miles
Clouds Few 3000 ft
Overcast 3600 ft
Windchill 25 °F
Dew Point 22 °F
Humidity 88%
Rainfall 0.00 in
Snow Depth Not available.
6:55 AM 5:47 PM
Waning Crescent, 6% visible
SPECI KSHR 240614Z AUTO 13008KT 8SM -SN FEW030 OVC036 M04/M06 A2995 RMK AO2 P0000 T10441061

Get Your Daily Forecast Email!

Thanks for signing up!

Be on the lookout for a verification email in your inbox.

You'll start receiving the daily forecast at 8 AM.

×

10-Day Weather Forecast

Almanac

Astronomy

Feb. 23, 2017 Rise Set
Actual Time
Civil Twilight
Nautical Twilight
Astronomical Twilight
Moon
Length of Visible Light
Length of Day
Tomorrow will be .
, % of the Moon is Illuminated

Today's Extremes

State Highs State Lows

Community

WunderPhotos

Upload Photos

1,962,540 photos uploaded!

WunderBlog® & News

Nearby

Air Quality

  Air Quality AQ Index Pollutant
Not available.

Snow Depth

Station Depth Elevation

Earthquake Activity

City Distance Mag. Time & Date
Minimum magnitude displayed is 2.5.

Coastal Water Temperatures

Place Temperature

Stations

Nearby Weather Stations

Station Location Temp. Windchill Dew Point Humidity Wind Precip. Elev Updated Type
                   

Watches & Warnings

Winter Weather Advisory
Issued: 2:14 PM MST Feb. 23, 2017 – National Weather Service

... Winter Weather Advisory remains in effect until noon MST
Friday...

* impacts... poor travel conditions due to slick roads and limited
visibility. Cold and wet weather may be hazardous to Young
livestock. Any wet roadways will freeze up quickly after sunset
tonight.

* Timing... through tomorrow morning.

* Additional snow accumulation... around 2 inches, locally heavier
near the mountains.

Precautionary/preparedness actions...

A Winter Weather Advisory can be issued for a variety of winter
weather conditions such as light snow... blowing snow... sleet...
freezing rain... and extreme wind chills.